Location: Bacharowice
(49.9333°N, 19.5833°E)
Time: 02:53:51
(UTC+00:00)

Cosmos 1908 Rocket - Pass Details

Date: 11 May 2021
Orbit: 605 x 632 km, 82.5° (Epoch: 22 June)

Event Time Altitude Azimuth Distance (km) Brightness Sun altitude
Rises 21:34:53 0° 353° (N) 2,941 8.6 -20.5°
Reaches altitude 10° 21:37:12 10° 358° (N) 2,029 7.3 -20.6°
Maximum altitude 21:41:37 54° 76° (ENE) 777 4.0 -20.8°
Enters shadow 21:42:33 44° 119° (ESE) 873 4.0 -20.9°
